| time (UTC) | temp C | wind direction | speed KPH | gust KPH | rain 1hr cm | rain 24hr cm | rain mn cm | humidity % | barometer mb |
| 20260904101603 | 27 | 188 | 4.8 | 12.9 | 0.00 | 0.00 | 0.00 | 47 | 1019.2 |
| 20260904100603 | 27 | 187 | 3.2 | 11.3 | 0.00 | 0.00 | 0.00 | 47 | 1019.3 |
| 20260904095604 | 27 | 128 | 4.8 | 14.5 | 0.00 | 0.00 | 0.00 | 47 | 1019.4 |
| 20260904094605 | 26 | 229 | 6.4 | 12.9 | 0.00 | 0.00 | 0.00 | 48 | 1019.7 |
| 20260904093604 | 26 | 201 | 1.6 | 16.1 | 0.00 | 0.00 | 0.00 | 49 | 1019.9 |
| 20260904092626 | 27 | 190 | 3.2 | 9.7 | 0.00 | 0.00 | 0.00 | 48 | 1020.1 |
| 20260904091605 | 26 | 172 | 3.2 | 9.7 | 0.00 | 0.00 | 0.00 | 50 | 1020.2 |
| 20260904090626 | 26 | 139 | 3.2 | 9.7 | 0.00 | 0.00 | 0.00 | 49 | 1020.3 |
| 20260904085606 | 26 | 146 | 3.2 | 9.7 | 0.00 | 0.00 | 0.00 | 51 | 1020.4 |
| 20260904084607 | 25 | 196 | 3.2 | 8.0 | 0.00 | 0.00 | 0.00 | 53 | 1020.4 |
| 20260904083607 | 25 | 216 | 3.2 | 9.7 | 0.00 | 0.00 | 0.00 | 52 | 1020.5 |
| 20260904082608 | 25 | 132 | 1.6 | 11.3 | 0.00 | 0.00 | 0.00 | 53 | 1020.5 |
| 20260904081608 | 24 | 213 | 4.8 | 12.9 | 0.00 | 0.00 | 0.00 | 54 | 1020.5 |
| 20260904080608 | 24 | 211 | 4.8 | 11.3 | 0.00 | 0.00 | 0.00 | 54 | 1020.6 |
| 20260904075610 | 24 | 183 | 3.2 | 11.3 | 0.00 | 0.00 | 0.00 | 55 | 1020.5 |
| 20260904074629 | 23 | 216 | 3.2 | 9.7 | 0.00 | 0.00 | 0.00 | 57 | 1020.7 |
| 20260904073558 | 23 | 126 | 3.2 | 11.3 | 0.00 | 0.00 | 0.00 | 58 | 1020.6 |
| 20260904072538 | 23 | 175 | 3.2 | 11.3 | 0.00 | 0.00 | 0.00 | 59 | 1020.6 |
| 20260904071539 | 23 | 173 | 3.2 | 8.0 | 0.00 | 0.00 | 0.00 | 58 | 1020.6 |
| 20260904070539 | 22 | 117 | 1.6 | 4.8 | 0.00 | 0.00 | 0.00 | 60 | 1020.7 |
| 20260904065539 | 23 | 109 | 1.6 | 3.2 | 0.00 | 0.00 | 0.00 | 60 | 1020.7 |
| 20260904064541 | 23 | 138 | 1.6 | 4.8 | 0.00 | 0.00 | 0.00 | 59 | 1020.7 |
| 20260904063543 | 22 | 134 | 1.6 | 4.8 | 0.00 | 0.00 | 0.00 | 61 | 1020.7 |
| 20260904062541 | 22 | 114 | 0.0 | 3.2 | 0.00 | 0.00 | 0.00 | 59 | 1020.7 |
| 20260904061541 | 21 | 156 | 3.2 | 4.8 | 0.00 | 0.00 | 0.00 | 62 | 1020.9 |
| 20260904060541 | 21 | 116 | 1.6 | 4.8 | 0.00 | 0.00 | 0.00 | 63 | 1020.9 |
| 20260904055542 | 20 | 102 | 0.0 | 4.8 | 0.00 | 0.00 | 0.00 | 64 | 1020.8 |
| 20260904054542 | 20 | 189 | 3.2 | 8.0 | 0.00 | 0.00 | 0.00 | 63 | 1020.9 |
| 20260904053542 | 20 | 154 | 1.6 | 4.8 | 0.00 | 0.00 | 0.00 | 64 | 1020.8 |
| 20260904052543 | 20 | 165 | 1.6 | 4.8 | 0.00 | 0.00 | 0.00 | 64 | 1020.9 |
| 20260904051544 | 19 | 132 | 1.6 | 4.8 | 0.00 | 0.00 | 0.00 | 66 | 1020.9 |
| 20260904050604 | 18 | 102 | 0.0 | 3.2 | 0.00 | 0.00 | 0.00 | 68 | 1020.8 |
| 20260904045544 | 18 | 109 | 0.0 | 3.2 | 0.00 | 0.00 | 0.00 | 67 | 1020.7 |
| 20260904044544 | 19 | 141 | 0.0 | 1.6 | 0.00 | 0.00 | 0.00 | 66 | 1020.9 |
| 20260904043545 | 19 | 157 | 1.6 | 3.2 | 0.00 | 0.00 | 0.00 | 65 | 1020.8 |
| 20260904042605 | 19 | 113 | 0.0 | 4.8 | 0.00 | 0.00 | 0.00 | 66 | 1020.7 |
| 20260904041545 | 19 | 112 | 0.0 | 1.6 | 0.00 | 0.00 | 0.00 | 65 | 1020.8 |
| 20260904040606 | 19 | 102 | 0.0 | 1.6 | 0.00 | 0.00 | 0.00 | 65 | 1021.0 |
| 20260904035547 | 19 | 102 | 0.0 | 1.6 | 0.00 | 0.00 | 0.00 | 64 | 1021.0 |
| 20260904034607 | 19 | 98 | 0.0 | 3.2 | 0.00 | 0.00 | 0.00 | 64 | 1021.1 |
| 20260904033548 | 19 | 96 | 0.0 | 1.6 | 0.00 | 0.00 | 0.00 | 64 | 1020.9 |
| 20260904032548 | 20 | 125 | 0.0 | 3.2 | 0.00 | 0.00 | 0.00 | 64 | 1021.1 |
| 20260904031550 | 20 | 150 | 1.6 | 4.8 | 0.00 | 0.00 | 0.00 | 63 | 1021.0 |
| 20260904030550 | 20 | 119 | 0.0 | 4.8 | 0.00 | 0.00 | 0.00 | 63 | 1021.0 |
| 20260904025549 | 20 | 187 | 1.6 | 8.0 | 0.00 | 0.00 | 0.00 | 64 | 1021.1 |
| 20260904024550 | 20 | 80 | 1.6 | 4.8 | 0.00 | 0.00 | 0.00 | 63 | 1021.2 |
| 20260904023550 | 20 | 151 | 1.6 | 4.8 | 0.00 | 0.00 | 0.00 | 62 | 1021.3 |
| 20260904022551 | 20 | 195 | 1.6 | 8.0 | 0.00 | 0.00 | 0.00 | 62 | 1021.2 |
| 20260904021632 | 20 | 177 | 1.6 | 4.8 | 0.00 | 0.00 | 0.00 | 62 | 1021.2 |
| 20260904020551 | 20 | 160 | 3.2 | 8.0 | 0.00 | 0.00 | 0.00 | 62 | 1021.3 |
| 20260904015552 | 20 | 139 | 1.6 | 4.8 | 0.00 | 0.00 | 0.00 | 62 | 1021.4 |
| 20260904014552 | 20 | 135 | 1.6 | 8.0 | 0.00 | 0.00 | 0.00 | 62 | 1021.4 |
| 20260904013552 | 20 | 141 | 1.6 | 4.8 | 0.00 | 0.00 | 0.00 | 63 | 1021.4 |
| 20260904012553 | 20 | 144 | 1.6 | 4.8 | 0.00 | 0.00 | 0.00 | 65 | 1021.5 |
| 20260904011554 | 20 | 0.0 | 0.0 | 0.00 | 0.00 | 0.00 | 66 | 1021.6 | |
| 20260904010554 | 20 | 117 | 0.0 | 4.8 | 0.00 | 0.00 | 0.00 | 65 | 1021.5 |
| 20260904005554 | 20 | 139 | 0.0 | 3.2 | 0.00 | 0.00 | 0.00 | 64 | 1021.6 |
| 20260904004554 | 20 | 138 | 1.6 | 3.2 | 0.00 | 0.00 | 0.00 | 64 | 1021.7 |
| 20260904003556 | 20 | 122 | 0.0 | 3.2 | 0.00 | 0.00 | 0.00 | 66 | 1021.6 |
| 20260904002557 | 20 | 107 | 1.6 | 3.2 | 0.00 | 0.00 | 0.00 | 66 | 1021.6 |
| 20260904001556 | 20 | 100 | 0.0 | 1.6 | 0.00 | 0.00 | 0.00 | 65 | 1021.8 |
| 20260904000556 | 20 | 118 | 1.6 | 4.8 | 0.00 | 0.00 | 0.00 | 66 | 1021.8 |
| 20260903235557 | 20 | 147 | 0.0 | 3.2 | 0.00 | 0.00 | 0.00 | 65 | 1022.0 |
| 20260903234637 | 20 | 127 | 1.6 | 4.8 | 0.00 | 0.00 | 0.00 | 65 | 1022.0 |
| 20260903233557 | 20 | 145 | 1.6 | 4.8 | 0.00 | 0.00 | 0.00 | 66 | 1022.0 |
| 20260903232558 | 20 | 168 | 1.6 | 4.8 | 0.00 | 0.00 | 0.00 | 67 | 1022.0 |
| 20260903231558 | 20 | 125 | 1.6 | 3.2 | 0.00 | 0.00 | 0.00 | 69 | 1022.1 |
| 20260903230559 | 20 | 118 | 0.0 | 1.6 | 0.00 | 0.00 | 0.00 | 68 | 1022.2 |
| 20260903225639 | 20 | 128 | 1.6 | 3.2 | 0.00 | 0.00 | 0.00 | 65 | 1022.2 |
| 20260903224600 | 20 | 144 | 1.6 | 4.8 | 0.00 | 0.00 | 0.00 | 65 | 1022.4 |
| 20260903223621 | 20 | 100 | 0.0 | 4.8 | 0.00 | 0.00 | 0.00 | 65 | 1022.4 |
| 20260903222621 | 21 | 155 | 1.6 | 8.0 | 0.00 | 0.00 | 0.00 | 65 | 1022.4 |
| 20260903221621 | 20 | 151 | 0.0 | 3.2 | 0.00 | 0.00 | 0.00 | 64 | 1022.4 |
| 20260903220601 | 21 | 122 | 1.6 | 3.2 | 0.00 | 0.00 | 0.00 | 64 | 1022.4 |
| 20260903215602 | 21 | 220 | 1.6 | 8.0 | 0.00 | 0.00 | 0.00 | 64 | 1022.3 |
| 20260903214603 | 21 | 153 | 1.6 | 4.8 | 0.00 | 0.00 | 0.00 | 63 | 1022.1 |
| 20260903213602 | 21 | 174 | 1.6 | 4.8 | 0.00 | 0.00 | 0.00 | 63 | 1021.9 |
| 20260903212603 | 21 | 117 | 0.0 | 3.2 | 0.00 | 0.00 | 0.00 | 64 | 1021.9 |
| 20260903211603 | 21 | 226 | 1.6 | 4.8 | 0.00 | 0.00 | 0.00 | 64 | 1021.8 |
| 20260903210604 | 20 | 131 | 1.6 | 8.0 | 0.00 | 0.00 | 0.00 | 64 | 1022.1 |
| 20260903205605 | 20 | 145 | 0.0 | 3.2 | 0.00 | 0.00 | 0.00 | 65 | 1022.1 |
| 20260903204620 | 20 | 102 | 1.6 | 3.2 | 0.00 | 0.00 | 0.00 | 65 | 1022.1 |
| 20260903203558 | 20 | 105 | 0.0 | 3.2 | 0.00 | 0.00 | 0.00 | 65 | 1022.0 |
| 20260903202538 | 20 | 102 | 0.0 | 1.6 | 0.00 | 0.00 | 0.00 | 65 | 1022.0 |
| 20260903201538 | 20 | 157 | 0.0 | 3.2 | 0.00 | 0.00 | 0.00 | 66 | 1021.8 |
| 20260903200538 | 20 | 74 | 0.0 | 1.6 | 0.00 | 0.00 | 0.00 | 66 | 1021.8 |
| 20260903195539 | 21 | 0.0 | 0.0 | 0.00 | 0.00 | 0.00 | 63 | 1021.7 | |
| 20260903194540 | 21 | 112 | 1.6 | 3.2 | 0.00 | 0.00 | 0.00 | 63 | 1021.5 |
| 20260903193540 | 21 | 98 | 0.0 | 3.2 | 0.00 | 0.00 | 0.00 | 63 | 1021.5 |
| 20260903192540 | 20 | 117 | 0.0 | 3.2 | 0.00 | 0.00 | 0.00 | 65 | 1021.5 |
| 20260903191541 | 20 | 108 | 0.0 | 1.6 | 0.00 | 0.00 | 0.00 | 66 | 1021.5 |
| 20260903190541 | 21 | 121 | 0.0 | 3.2 | 0.00 | 0.00 | 0.00 | 65 | 1021.4 |
| 20260903185542 | 21 | 0.0 | 0.0 | 0.00 | 0.00 | 0.00 | 63 | 1021.3 | |
| 20260903184541 | 21 | 122 | 0.0 | 3.2 | 0.00 | 0.00 | 0.00 | 61 | 1021.3 |
| 20260903183622 | 21 | 111 | 0.0 | 1.6 | 0.00 | 0.00 | 0.00 | 62 | 1021.2 |
| 20260903182542 | 21 | 0.0 | 0.0 | 0.00 | 0.00 | 0.00 | 63 | 1021.1 | |
| 20260903181544 | 22 | 110 | 0.0 | 1.6 | 0.00 | 0.00 | 0.00 | 61 | 1021.1 |
| 20260903180543 | 22 | 123 | 0.0 | 1.6 | 0.00 | 0.00 | 0.00 | 59 | 1021.0 |
| 20260903175544 | 22 | 188 | 0.0 | 3.2 | 0.00 | 0.00 | 0.00 | 60 | 1020.9 |
| 20260903174544 | 22 | 0.0 | 0.0 | 0.00 | 0.00 | 0.00 | 59 | 1020.9 | |
| 20260903173544 | 22 | 111 | 0.0 | 4.8 | 0.00 | 0.00 | 0.00 | 58 | 1020.9 |
| 20260903172545 | 22 | 161 | 1.6 | 3.2 | 0.00 | 0.00 | 0.00 | 57 | 1020.8 |
| 20260903171545 | 23 | 133 | 0.0 | 3.2 | 0.00 | 0.00 | 0.00 | 57 | 1020.9 |
| 20260903170546 | 23 | 127 | 1.6 | 3.2 | 0.00 | 0.00 | 0.00 | 56 | 1020.8 |
| 20260903165546 | 23 | 143 | 1.6 | 4.8 | 0.00 | 0.00 | 0.00 | 56 | 1020.8 |
| 20260903164547 | 23 | 138 | 1.6 | 9.7 | 0.00 | 0.00 | 0.00 | 55 | 1020.7 |
| 20260903163547 | 23 | 179 | 3.2 | 9.7 | 0.00 | 0.00 | 0.00 | 54 | 1020.8 |
| 20260903162548 | 24 | 134 | 3.2 | 8.0 | 0.00 | 0.00 | 0.00 | 54 | 1020.7 |
| 20260903161628 | 24 | 14 | 3.2 | 9.7 | 0.00 | 0.00 | 0.00 | 54 | 1020.7 |
| 20260903160549 | 25 | 194 | 3.2 | 9.7 | 0.00 | 0.00 | 0.00 | 53 | 1020.7 |
| 20260903155549 | 25 | 206 | 3.2 | 8.0 | 0.00 | 0.00 | 0.00 | 52 | 1020.6 |
| 20260903154549 | 25 | 187 | 3.2 | 12.9 | 0.00 | 0.00 | 0.00 | 52 | 1020.7 |
| 20260903153549 | 25 | 190 | 3.2 | 9.7 | 0.00 | 0.00 | 0.00 | 50 | 1020.6 |
| 20260903152550 | 25 | 69 | 1.6 | 4.8 | 0.00 | 0.00 | 0.00 | 53 | 1020.7 |
| 20260903151550 | 25 | 6 | 1.6 | 8.0 | 0.00 | 0.00 | 0.00 | 52 | 1020.7 |
| 20260903150551 | 25 | 176 | 3.2 | 9.7 | 0.00 | 0.00 | 0.00 | 50 | 1020.7 |
| 20260903145611 | 25 | 60 | 3.2 | 8.0 | 0.00 | 0.00 | 0.00 | 50 | 1020.7 |
| 20260903144551 | 25 | 196 | 3.2 | 12.9 | 0.00 | 0.00 | 0.00 | 51 | 1020.8 |
| 20260903143552 | 25 | 328 | 3.2 | 14.5 | 0.00 | 0.00 | 0.00 | 50 | 1020.9 |
| 20260903142552 | 25 | 309 | 3.2 | 14.5 | 0.00 | 0.00 | 0.00 | 51 | 1021.0 |
| 20260903141556 | 25 | 47 | 3.2 | 12.9 | 0.00 | 0.00 | 0.00 | 51 | 1021.0 |
| 20260903140553 | 25 | 51 | 1.6 | 4.8 | 0.00 | 0.00 | 0.00 | 52 | 1021.0 |
| 20260903135553 | 25 | 8 | 3.2 | 16.1 | 0.00 | 0.00 | 0.00 | 51 | 1021.0 |
| 20260903134556 | 26 | 329 | 3.2 | 11.3 | 0.00 | 0.00 | 0.00 | 50 | 1021.0 |
| 20260903133554 | 26 | 39 | 3.2 | 12.9 | 0.00 | 0.00 | 0.00 | 51 | 1020.9 |
| 20260903132635 | 25 | 352 | 3.2 | 8.0 | 0.00 | 0.00 | 0.00 | 53 | 1021.1 |
| 20260903131615 | 25 | 95 | 1.6 | 8.0 | 0.00 | 0.00 | 0.00 | 54 | 1021.0 |
| 20260903130616 | 25 | 290 | 3.2 | 14.5 | 0.00 | 0.00 | 0.00 | 52 | 1021.2 |
| 20260903125556 | 25 | 189 | 3.2 | 9.7 | 0.00 | 0.00 | 0.00 | 52 | 1021.2 |
| 20260903124557 | 25 | 39 | 3.2 | 11.3 | 0.00 | 0.00 | 0.00 | 53 | 1021.2 |
| 20260903123557 | 25 | 40 | 4.8 | 11.3 | 0.00 | 0.00 | 0.00 | 53 | 1021.4 |
| 20260903122617 | 25 | 237 | 3.2 | 11.3 | 0.00 | 0.00 | 0.00 | 52 | 1021.6 |
| 20260903121558 | 25 | 114 | 3.2 | 9.7 | 0.00 | 0.00 | 0.00 | 53 | 1021.6 |
| 20260903120558 | 25 | 140 | 3.2 | 12.9 | 0.00 | 0.00 | 0.00 | 53 | 1021.4 |
| 20260903115559 | 25 | 351 | 3.2 | 12.9 | 0.00 | 0.00 | 0.00 | 52 | 1021.5 |
| 20260903114559 | 25 | 46 | 3.2 | 9.7 | 0.00 | 0.00 | 0.00 | 52 | 1021.5 |
| 20260903113559 | 25 | 353 | 4.8 | 17.7 | 0.00 | 0.00 | 0.00 | 52 | 1021.5 |
| 20260903112642 | 25 | 332 | 4.8 | 16.1 | 0.00 | 0.00 | 0.00 | 53 | 1021.5 |
| 20260903111600 | 25 | 210 | 4.8 | 17.7 | 0.00 | 0.00 | 0.00 | 53 | 1021.5 |
| 20260903110600 | 25 | 118 | 3.2 | 12.9 | 0.00 | 0.00 | 0.00 | 54 | 1021.6 |
| 20260903105601 | 25 | 67 | 4.8 | 16.1 | 0.00 | 0.00 | 0.00 | 54 | 1021.8 |
| 20260903104602 | 25 | 229 | 4.8 | 11.3 | 0.00 | 0.00 | 0.00 | 56 | 1021.8 |
| 20260903103623 | 24 | 313 | 4.8 | 12.9 | 0.00 | 0.00 | 0.00 | 57 | 1021.6 |
| 20260903102602 | 25 | 174 | 4.8 | 12.9 | 0.00 | 0.00 | 0.00 | 54 | 1021.7 |